Back to catalog

STARLINK-32086

AliveCommunicationsVLEO
NORAD 59703·PAYLOAD·🇺🇸 United States

Launched May 8, 2024 from Cape Canaveral Space Force Station

Loading…

Next Passes (next 24 hours)

TLE

FreshSource: CelesTrak SupGP

Epoch: Sep 14, 2026, 14:48 UTC

1 59703C 24086X   26257.61715278 -.00015163  00000+0 -54938-3 0  2579
2 59703  42.9994  72.6175 0001403 232.0830 351.1735 15.27575506    16

Track STARLINK-32086 in real time with AllMySat

Download on the App Store